sat.trackr.live / text

‹ back to catalog

STARLINK-34999

NORAD 65222 · 2025-176AA

PAYLOAD ACTIVE UNKNOWN

§ Identity

Operator
Country
US
Launch date
2025-08-14
Launch site
AFETR
Launch vehicle
Mass (kg)
RCS (m²)

Purposes: comms

External: N2YO · Heavens-Above · Gunter

§ Orbital elements

Epoch: 2026-05-25T04:00:47.839968Z

Period
93.76 min
Inclination
53.1583°
Eccentricity
0.0015854
Mean motion
15.35903556 rev/d
Perigee alt
447.4 km
Apogee alt
469.1 km
Semi-major
6,836.4 km
B*
4.2873e-2
RAAN
157.2002°
Arg perigee
243.3228°
Mean anomaly
116.6152°
Rev number
4,483

§ Raw data

STARLINK-349991 65222U 25176AA  26145.16722037  .01681106  00000+0  42873-1 0  99912 65222  53.1583 157.2002 0015854 243.3228 116.6152 15.35903556 44831

JSON: /api/v1/satellites/65222 · /tle

For live sub-satellite position, see the globe view (requires WebGL).

§ Visibility from observer

Set your observer location to see the next 7 days of passes ≥ 10°. The values pass through the URL so the page stays shareable.

No JS? Fill the form by hand. The geolocation button needs JavaScript.